Flag for U.S.A. Weather past 2 weeks in Daly City, California, U.S.A.

Now
58 °F

Partly sunny.


Feels Like: 53 °F
Forecast: 51 / 59 °F
Wind: 24 mph from West

Location: San Francisco International Airport

Current Time: Feb 27, 2015 at 2:54:58 PM

Latest Report: Feb 27, 2015 at 1:56 PM


Visibility: 10 mi

Pressure: 29.81 "Hg

Humidity: 72%

Dew point: 49 °F

Location of Daly CityLocation

Historic Weather in Daly City — Graph

°F

Daly City temperature yesterday

Maximum temperature yesterday: 65 °F (at 11:56 AM)
Minimum temperature yesterday: 50 °F (at 5:56 AM)
Average temperature yesterday: 57 °F

Past Weeks' High & Low Weather Summary

 TemperatureHumidityPressure
High73 °F (Feb 15, 1:56 PM)100% (Feb 13, 2:56 AM)30.36 "Hg (Feb 13, 2:56 AM)
Low46 °F (Feb 24, 5:56 AM)30% (Feb 23, 8:56 AM)29.81 "Hg (Feb 27, 1:56 PM)
Average58 °F79%30.06 "Hg
* Reported Feb 12 1:56 PM — Feb 27 1:56 PM, Daly City, Weather by CustomWeather, © 2015

Note: Actual official high and low records may vary slightly from our data, if they occured in-between our weather recording intervals... More about our weather records

Advertising

Daly City weather history for previous 24 hours

 ConditionsComfort  
Time TempWeatherWind HumidityBarometerVisibility
1:56 PM
Fri, Feb 27
58 °FPartly sunny.24 mph72%29.81 "Hg10 mi
12:56 PM61 °FBroken clouds.22 mph65%29.84 "Hg10 mi
11:56 AM60 °FPartly sunny.21 mph69%29.88 "Hg10 mi
10:56 AM60 °FScattered clouds.21 mph78%29.87 "Hg10 mi
9:56 AM60 °FScattered clouds.25 mph78%29.89 "Hg10 mi
8:56 AM58 °FPartly sunny.10 mph87%29.90 "Hg10 mi
7:56 AM56 °FPartly sunny.15 mph97%29.89 "Hg10 mi
6:56 AM56 °FBroken clouds.21 mph93%29.88 "Hg10 mi
5:56 AM55 °FPassing clouds.12 mph93%29.90 "Hg10 mi
4:56 AM55 °FPassing clouds.17 mph90%29.89 "Hg10 mi
3:56 AM55 °FPassing clouds.22 mph93%29.90 "Hg10 mi
2:56 AM55 °FPassing clouds.14 mph96%29.90 "Hg10 mi
1:56 AM56 °FPassing clouds.14 mph87%29.91 "Hg10 mi
12:56 AM56 °FPassing clouds.20 mph90%29.93 "Hg10 mi
11:56 PM
Thu, Feb 26
56 °FPassing clouds.25 mph93%29.93 "Hg10 mi
10:56 PM56 °FPassing clouds.24 mph93%29.94 "Hg10 mi
9:56 PM57 °FPassing clouds.26 mph93%29.94 "Hg10 mi
8:56 PM57 °FPassing clouds.22 mph93%29.94 "Hg10 mi
7:56 PM57 °FPassing clouds.20 mph93%29.93 "Hg10 mi
6:56 PM58 °FPassing clouds.18 mph90%29.93 "Hg10 mi
5:56 PM59 °FBroken clouds.20 mph87%29.93 "Hg10 mi
4:56 PM60 °FPartly sunny.20 mph83%29.95 "Hg10 mi
3:56 PM63 °FPartly sunny.20 mph70%29.96 "Hg10 mi
2:56 PM64 °FScattered clouds.26 mph68%29.98 "Hg10 mi
Weather by CustomWeather, © 2015

See weather overviewHow to use our weather pages